• In Kazakhstan
  • List of Countries
  • For 7 days
  • Water Temperature
  • Weather Map
  • News
  • Weather Widgets
  • user-avatar
    Login

    Hourly Weather Idzhewan

    Today, 22 February, Saturday

    Time Temperature Precipitation Wind Pressure Humidity
    00:00 +4°C° 0 mm 2 mps 693 mmHg 72%
    01:00 +4°C° 0 mm 2 mps 693 mmHg 73%
    02:00 +4°C° 0 mm 2 mps 693 mmHg 75%
    03:00 +3°C° 0 mm 2 mps 693 mmHg 77%
    04:00 +3°C° 0 mm 2 mps 693 mmHg 77%
    05:00 +3°C° 0 mm 2 mps 693 mmHg 78%
    06:00 +4°C° 0 mm 1 mps 693 mmHg 78%
    07:00 +5°C° 0 mm 1 mps 693 mmHg 77%
    08:00 +6°C° 0 mm 1 mps 694 mmHg 75%
    09:00 +7°C° 0 mm 1 mps 694 mmHg 74%
    10:00 +7°C° 0 mm 1 mps 694 mmHg 74%
    11:00 +8°C° 0 mm 1 mps 694 mmHg 73%
    12:00 +9°C° 0 mm 1 mps 694 mmHg 72%
    13:00 +9°C° 0 mm 1 mps 694 mmHg 77%
    14:00 +9°C° 0 mm 1 mps 693 mmHg 81%
    15:00 +8°C° 0 mm 1 mps 693 mmHg 85%
    16:00 +8°C° 0 mm 1 mps 693 mmHg 87%
    17:00 +7°C° 0 mm 1 mps 693 mmHg 88%
    18:00 +5°C° 0 mm 0 mps 693 mmHg 90%
    19:00 +6°C° 0 mm 1 mps 694 mmHg 89%
    20:00 +6°C° 0 mm 1 mps 694 mmHg 88%
    21:00 +6°C° 0 mm 1 mps 694 mmHg 87%
    22:00 +5°C° 0 mm 1 mps 694 mmHg 86%
    23:00 +5°C° 0 mm 1 mps 694 mmHg 86%

    Tomorrow, 23 February, Sunday

    Time Temperature Precipitation Wind Pressure Humidity
    00:00 +5°C° 0 mm 1 mps 694 mmHg 85%
    01:00 +5°C° 0 mm 1 mps 694 mmHg 84%
    02:00 +4°C° 0 mm 2 mps 694 mmHg 83%
    03:00 +4°C° 0 mm 2 mps 694 mmHg 82%
    04:00 +4°C° 0 mm 2 mps 694 mmHg 81%
    05:00 +4°C° 0 mm 2 mps 694 mmHg 80%
    06:00 +4°C° 0 mm 2 mps 694 mmHg 79%
    07:00 +5°C° 0 mm 2 mps 694 mmHg 76%
    08:00 +6°C° 0 mm 2 mps 695 mmHg 73%
    09:00 +7°C° 0 mm 2 mps 695 mmHg 69%
    10:00 +8°C° 0 mm 2 mps 695 mmHg 66%
    11:00 +9°C° 0 mm 2 mps 695 mmHg 63%
    12:00 +11°C° 0 mm 1 mps 695 mmHg 60%
    13:00 +10°C° 0 mm 2 mps 694 mmHg 60%
    14:00 +10°C° 0 mm 2 mps 694 mmHg 60%
    15:00 +10°C° 0 mm 2 mps 693 mmHg 60%
    16:00 +9°C° 0 mm 2 mps 693 mmHg 66%
    17:00 +8°C° 0 mm 1 mps 694 mmHg 72%
    18:00 +7°C° 0 mm 1 mps 694 mmHg 77%
    19:00 +6°C° 0 mm 2 mps 694 mmHg 78%
    20:00 +5°C° 0 mm 2 mps 694 mmHg 78%
    21:00 +5°C° 0 mm 2 mps 694 mmHg 78%
    22:00 +5°C° 0 mm 2 mps 694 mmHg 78%
    23:00 +5°C° 0 mm 2 mps 694 mmHg 78%

    Day after tomorrow, 24 February, Monday

    Time Temperature Precipitation Wind Pressure Humidity
    00:00 +4°C° 0 mm 2 mps 694 mmHg 79%
    01:00 +4°C° 0 mm 2 mps 694 mmHg 79%
    02:00 +4°C° 0 mm 2 mps 694 mmHg 80%
    03:00 +4°C° 0 mm 2 mps 693 mmHg 80%
    04:00 +4°C° 0 mm 2 mps 693 mmHg 80%
    05:00 +4°C° 0 mm 2 mps 693 mmHg 80%
    06:00 +3°C° 0 mm 2 mps 693 mmHg 80%
    07:00 +5°C° 0 mm 2 mps 693 mmHg 75%
    08:00 +6°C° 0 mm 2 mps 693 mmHg 70%
    09:00 +7°C° 0 mm 2 mps 693 mmHg 65%
    10:00 +8°C° 0 mm 2 mps 693 mmHg 61%
    11:00 +9°C° 0 mm 2 mps 692 mmHg 58%
    12:00 +10°C° 0 mm 2 mps 692 mmHg 54%
    13:00 +10°C° 0 mm 2 mps 691 mmHg 53%
    14:00 +10°C° 0 mm 2 mps 690 mmHg 52%
    15:00 +12°C° 0 mm 2 mps 689 mmHg 51%
    16:00 +9°C° 0 mm 2 mps 689 mmHg 57%
    17:00 +8°C° 0 mm 2 mps 688 mmHg 62%
    18:00 +7°C° 0 mm 2 mps 688 mmHg 68%
    19:00 +5°C° 0 mm 3 mps 688 mmHg 69%
    20:00 +5°C° 0 mm 3 mps 688 mmHg 69%
    21:00 +5°C° 0 mm 4 mps 688 mmHg 70%
    22:00 +5°C° 0 mm 4 mps 688 mmHg 70%
    23:00 +5°C° 0 mm 4 mps 687 mmHg 69%

    25 February, Tuesday

    Time Temperature Precipitation Wind Pressure Humidity
    00:00 +5°C° 0 mm 4 mps 687 mmHg 69%
    01:00 +5°C° 0 mm 4 mps 687 mmHg 70%
    02:00 +5°C° 0 mm 3 mps 687 mmHg 70%
    03:00 +5°C° 0 mm 3 mps 687 mmHg 70%
    04:00 +5°C° 0.2 mm 2 mps 687 mmHg 77%
    05:00 +5°C° 0.2 mm 1 mps 687 mmHg 84%
    06:00 +4°C° 0.2 mm 0 mps 687 mmHg 90%
    07:00 +5°C° 0.8 mm 1 mps 687 mmHg 85%
    08:00 +4°C° 0.8 mm 2 mps 688 mmHg 79%
    09:00 +3°C° 0.8 mm 3 mps 688 mmHg 74%
    10:00 +3°C° 0.3 mm 4 mps 688 mmHg 69%
    11:00 +4°C° 0.3 mm 4 mps 688 mmHg 64%
    12:00 +4°C° 0.3 mm 4 mps 688 mmHg 59%
    13:00 +5°C° 0 mm 4 mps 689 mmHg 54%
    14:00 +5°C° 0 mm 4 mps 689 mmHg 49%
    15:00 +5°C° 0 mm 4 mps 690 mmHg 44%
    16:00 +4°C° 0 mm 4 mps 690 mmHg 48%
    17:00 +3°C° 0 mm 4 mps 691 mmHg 51%
    18:00 +2°C° 0 mm 3 mps 692 mmHg 55%
    19:00 +1°C° 0 mm 3 mps 693 mmHg 56%
    20:00 0°C° 0 mm 3 mps 693 mmHg 57%
    21:00 -1°C° 0 mm 2 mps 694 mmHg 57%
    22:00 -1°C° 0 mm 2 mps 694 mmHg 55%
    23:00 -1°C° 0 mm 2 mps 695 mmHg 54%

    26 February, Wednesday

    Time Temperature Precipitation Wind Pressure Humidity
    00:00 0°C° 0 mm 1 mps 695 mmHg 52%
    01:00 0°C° 0 mm 1 mps 695 mmHg 51%
    02:00 0°C° 0 mm 1 mps 695 mmHg 51%
    03:00 0°C° 0 mm 1 mps 695 mmHg 50%
    04:00 0°C° 0 mm 1 mps 695 mmHg 52%
    05:00 -1°C° 0 mm 1 mps 695 mmHg 53%
    06:00 -1°C° 0 mm 1 mps 695 mmHg 55%
    07:00 0°C° 0 mm 1 mps 695 mmHg 53%
    08:00 +1°C° 0 mm 1 mps 696 mmHg 51%
    09:00 +2°C° 0 mm 1 mps 696 mmHg 48%
    10:00 +3°C° 0 mm 1 mps 696 mmHg 48%
    11:00 +3°C° 0 mm 2 mps 696 mmHg 49%
    12:00 +4°C° 0 mm 2 mps 696 mmHg 49%
    13:00 +4°C° 0 mm 2 mps 695 mmHg 50%
    14:00 +4°C° 0 mm 2 mps 695 mmHg 52%
    15:00 +5°C° 0 mm 2 mps 695 mmHg 53%
    16:00 +5°C° 0 mm 1 mps 695 mmHg 61%
    17:00 +4°C° 0 mm 1 mps 695 mmHg 69%
    18:00 +3°C° 0 mm 1 mps 695 mmHg 77%
    19:00 +2°C° 0 mm 1 mps 695 mmHg 76%
    20:00 +2°C° 0 mm 1 mps 695 mmHg 75%
    21:00 +2°C° 0 mm 1 mps 696 mmHg 75%
    22:00 +2°C° 0 mm 1 mps 695 mmHg 72%
    23:00 +2°C° 0 mm 1 mps 695 mmHg 70%

    27 February, Thursday

    Time Temperature Precipitation Wind Pressure Humidity
    00:00 +2°C° 0 mm 1 mps 695 mmHg 67%
    01:00 +1°C° 0 mm 1 mps 695 mmHg 65%
    02:00 +1°C° 0 mm 1 mps 695 mmHg 63%
    03:00 +1°C° 0 mm 1 mps 695 mmHg 61%
    04:00 -1°C° 0 mm 2 mps 695 mmHg 59%
    05:00 -1°C° 0 mm 2 mps 694 mmHg 58%
    06:00 -1°C° 0 mm 2 mps 694 mmHg 56%
    07:00 +2°C° 0 mm 2 mps 694 mmHg 53%
    08:00 +3°C° 0 mm 2 mps 694 mmHg 50%
    09:00 +5°C° 0 mm 2 mps 695 mmHg 47%
    10:00 +6°C° 0 mm 2 mps 694 mmHg 46%
    11:00 +7°C° 0 mm 2 mps 694 mmHg 45%
    12:00 +9°C° 0 mm 2 mps 694 mmHg 44%
    13:00 +9°C° 0 mm 2 mps 694 mmHg 45%
    14:00 +10°C° 0 mm 2 mps 693 mmHg 45%
    15:00 +10°C° 0 mm 2 mps 693 mmHg 46%
    16:00 +9°C° 0 mm 2 mps 693 mmHg 49%
    17:00 +7°C° 0 mm 2 mps 692 mmHg 52%
    18:00 +5°C° 0 mm 2 mps 692 mmHg 55%
    19:00 +5°C° 0 mm 2 mps 692 mmHg 51%
    20:00 +5°C° 0 mm 2 mps 692 mmHg 47%
    21:00 +4°C° 0 mm 3 mps 692 mmHg 43%
    22:00 +4°C° 0 mm 3 mps 692 mmHg 42%
    23:00 +4°C° 0 mm 3 mps 692 mmHg 41%
    Show more